QPF
0.27 0.28 0.24 0.22 0.19 0.17 0.17 0.17 0.18 0.19 0.19 0.18 0.17 0.14 0.11 0.11 0.11 0.12 0.10 0.07 0.04 0.03 0.04 0.06 0.09 0.14 0.16 0.16 0.14 0.09 0.07 0.05 0.05 0.04 0.04 0.03 0.03 0.02 0.01 0.01 0.01 0.01 0.00
0.28 0.30 0.26 0.20 0.18 0.18 0.17 0.15 0.14 0.15 0.17 0.15 0.11 0.11 0.11 0.12 0.11 0.10 0.10 0.10 0.07 0.06 0.03 0.04 0.05 0.08 0.13 0.17 0.16 0.14 0.11 0.07 0.06 0.04 0.03 0.03 0.03 0.02 0.01 0.01 0.01 0.00 0.00
0.17 0.17 0.16 0.12 0.11 0.12 0.10 0.08 0.07 0.07 0.09 0.09 0.09 0.09 0.08 0.08 0.07 0.08 0.09 0.08 0.08 0.07 0.05 0.04 0.04 0.06 0.09 0.13 0.14 0.15 0.16 0.14 0.09 0.06 0.04 0.03 0.03 0.03 0.03 0.02 0.01 0.01 0.01
0.10 0.09 0.09 0.07 0.05 0.05 0.04 0.04 0.04 0.04 0.04 0.04 0.05 0.07 0.06 0.05 0.05 0.05 0.07 0.05 0.06 0.06 0.05 0.05 0.05 0.06 0.06 0.09 0.14 0.18 0.18 0.15 0.12 0.09 0.06 0.04 0.03 0.03 0.03 0.02 0.01 0.01 0.01
0.04 0.04 0.05 0.05 0.04 0.04 0.05 0.05 0.04 0.03 0.02 0.03 0.03 0.03 0.03 0.03 0.03 0.03 0.04 0.04 0.04 0.04 0.04 0.05 0.06 0.07 0.08 0.09 0.13 0.19 0.22 0.20 0.16 0.11 0.09 0.06 0.04 0.03 0.02 0.02 0.02 0.02 0.01
0.03 0.03 0.03 0.03 0.02 0.02 0.03 0.03 0.03 0.03 0.02 0.02 0.02 0.02 0.03 0.03 0.04 0.03 0.03 0.04 0.05 0.04 0.03 0.05 0.07 0.06 0.05 0.09 0.13 0.18 0.22 0.22 0.20 0.15 0.12 0.09 0.06 0.04 0.02 0.02 0.02 0.02 0.01
0.02 0.02 0.02 0.02 0.02 0.02 0.02 0.02 0.02 0.02 0.02 0.02 0.02 0.02 0.01 0.01 0.02 0.02 0.03 0.03 0.03 0.04 0.05 0.05 0.06 0.07 0.05 0.07 0.11 0.13 0.18 0.22 0.23 0.20 0.16 0.12 0.08 0.05 0.03 0.02 0.02 0.01 0.01
0.00 0.00 0.01 0.01 0.01 0.02 0.02 0.02 0.02 0.02 0.01 0.01 0.02 0.02 0.02 0.02 0.02 0.03 0.03 0.03 0.04 0.05 0.05 0.05 0.06 0.08 0.06 0.09 0.08 0.11 0.13 0.16 0.21 0.22 0.20 0.15 0.10 0.07 0.04 0.03 0.02 0.01 0.01
0.00 0.00 0.00 0.00 0.00 0.00 0.01 0.01 0.01 0.01 0.01 0.01 0.01 0.02 0.03 0.03 0.03 0.03 0.04 0.05 0.06 0.07 0.07 0.07 0.08 0.09 0.09 0.09 0.10 0.09 0.10 0.11 0.15 0.18 0.19 0.18 0.13 0.08 0.05 0.03 0.02 0.01 0.01
0.00 0.00 0.00 0.00 0.00 0.00 0.00 0.00 0.00 0.01 0.01 0.01 0.01 0.01 0.02 0.03 0.04 0.03 0.03 0.04 0.05 0.05 0.05 0.05 0.06 0.08 0.09 0.10 0.09 0.07 0.07 0.08 0.11 0.15 0.19 0.18 0.15 0.10 0.06 0.05 0.04 0.02 0.01
0.00 0.00 0.00 0.00 0.00 0.00 0.00 0.00 0.00 0.01 0.01 0.01 0.01 0.01 0.01 0.02 0.03 0.03 0.03 0.04 0.04 0.04 0.04 0.04 0.04 0.06 0.07 0.10 0.11 0.09 0.07 0.07 0.09 0.11 0.16 0.18 0.18 0.14 0.09 0.06 0.07 0.06 0.03
0.00 0.00 0.00 0.00 0.00 0.00 0.00 0.00 0.00 0.01 0.01 0.01 0.01 0.01 0.01 0.01 0.01 0.02 0.03 0.03 0.04 0.04 0.04 0.04 0.05 0.06 0.08 0.09 0.09 0.08 0.07 0.06 0.08 0.08 0.11 0.13 0.14 0.15 0.13 0.11 0.10 0.10 0.08
0.00 0.00 0.00 0.00 0.00 0.00 0.00 0.00 0.00 0.00 0.01 0.01 0.01 0.01 0.01 0.01 0.01 0.01 0.02 0.02 0.02 0.02 0.03 0.04 0.05 0.07 0.07 0.09 0.10 0.09 0.09 0.07 0.07 0.07 0.07 0.08 0.09 0.10 0.11 0.10 0.10 0.10 0.09
0.00 0.00 0.00 0.00 0.00 0.00 0.00 0.00 0.00 0.00 0.01 0.01 0.01 0.01 0.01 0.01 0.01 0.01 0.01 0.02 0.02 0.02 0.04 0.05 0.05 0.06 0.09 0.10 0.11 0.11 0.10 0.09 0.08 0.08 0.07 0.06 0.06 0.06 0.06 0.06 0.06 0.06 0.06
0.00 0.00 0.00 0.00 0.00 0.00 0.00 0.00 0.01 0.01 0.01 0.01 0.01 0.01 0.01 0.00 0.01 0.01 0.01 0.02 0.03 0.03 0.04 0.06 0.08 0.07 0.08 0.09 0.12 0.10 0.10 0.10 0.08 0.07 0.07 0.07 0.07 0.06 0.05 0.04 0.03 0.03 0.03
0.00 0.00 0.00 0.00 0.00 0.00 0.00 0.01 0.01 0.01 0.01 0.01 0.01 0.01 0.01 0.01 0.01 0.01 0.01 0.02 0.02 0.03 0.03 0.04 0.08 0.09 0.08 0.07 0.09 0.10 0.12 0.13 0.11 0.08 0.07 0.06 0.06 0.06 0.05 0.04 0.02 0.02 0.02
0.00 0.00 0.00 0.00 0.00 0.00 0.01 0.01 0.01 0.01 0.01 0.01 0.01 0.01 0.01 0.01 0.02 0.01 0.01 0.02 0.02 0.03 0.03 0.03 0.06 0.10 0.11 0.10 0.10 0.09 0.11 0.13 0.13 0.12 0.08 0.06 0.06 0.05 0.05 0.04 0.03 0.02 0.02
0.00 0.00 0.00 0.00 0.00 0.00 0.01 0.01 0.01 0.01 0.01 0.01 0.01 0.01 0.01 0.01 0.02 0.02 0.02 0.02 0.02 0.03 0.03 0.04 0.06 0.09 0.14 0.14 0.14 0.13 0.13 0.14 0.13 0.13 0.11 0.08 0.06 0.06 0.05 0.04 0.03 0.03 0.03
0.00 0.00 0.00 0.00 0.00 0.00 0.01 0.01 0.01 0.01 0.01 0.01 0.01 0.01 0.01 0.02 0.02 0.02 0.02 0.02 0.02 0.02 0.02 0.03 0.05 0.07 0.12 0.17 0.18 0.17 0.15 0.16 0.17 0.16 0.14 0.12 0.09 0.07 0.06 0.04 0.03 0.02 0.02
0.00 0.00 0.00 0.00 0.00 0.01 0.01 0.01 0.01 0.01 0.01 0.01 0.01 0.01 0.01 0.02 0.02 0.02 0.02 0.02 0.02 0.03 0.03 0.03 0.03 0.06 0.10 0.16 0.21 0.22 0.20 0.17 0.18 0.18 0.16 0.14 0.12 0.09 0.08 0.05 0.03 0.02 0.02
0.00 0.00 0.00 0.00 0.00 0.00 0.00 0.01 0.01 0.01 0.01 0.02 0.02 0.02 0.01 0.01 0.01 0.02 0.01 0.02 0.03 0.03 0.03 0.03 0.04 0.06 0.08 0.14 0.19 0.22 0.25 0.22 0.18 0.18 0.17 0.15 0.11 0.08 0.07 0.06 0.04 0.03 0.02
0.00 0.00 0.00 0.00 0.00 0.00 0.00 0.00 0.00 0.01 0.01 0.02 0.02 0.02 0.02 0.01 0.01 0.00 0.00 0.00 0.01 0.03 0.03 0.04 0.04 0.06 0.08 0.11 0.18 0.23 0.25 0.28 0.22 0.16 0.15 0.15 0.12 0.09 0.06 0.04 0.04 0.03 0.02
0.00 0.00 0.00 0.00 0.00 0.01 0.00 0.00 0.00 0.00 0.01 0.01 0.02 0.03 0.02 0.01 0.02 0.02 0.02 0.01 0.01 0.00 0.01 0.03 0.04 0.05 0.08 0.12 0.18 0.25 0.27 0.26 0.26 0.21 0.16 0.15 0.13 0.10 0.07 0.06 0.05 0.03 0.02
0.00 0.00 0.00 0.01 0.01 0.01 0.00 0.00 0.00 0.00 0.01 0.01 0.02 0.02 0.03 0.03 0.03 0.03 0.05 0.05 0.04 0.02 0.01 0.01 0.02 0.04 0.06 0.12 0.18 0.24 0.33 0.36 0.32 0.30 0.25 0.18 0.12 0.09 0.07 0.05 0.05 0.04 0.02
0.00 0.00 0.00 0.01 0.01 0.01 0.00 0.00 0.00 0.00 0.01 0.01 0.02 0.02 0.03 0.04 0.03 0.01 0.03 0.05 0.05 0.05 0.02 0.01 0.01 0.02 0.02 0.05 0.13 0.23 0.34 0.39 0.39 0.35 0.27 0.21 0.13 0.09 0.07 0.05 0.04 0.04 0.02
0.00 0.00 0.00 0.01 0.01 0.01 0.00 0.00 0.00 0.00 0.01 0.02 0.03 0.03 0.02 0.02 0.02 0.01 0.03 0.06 0.06 0.06 0.06 0.05 0.03 0.01 0.02 0.03 0.07 0.14 0.24 0.34 0.35 0.35 0.28 0.19 0.15 0.09 0.07 0.05 0.04 0.03 0.02
MSLP
1016.25 1016.46 1016.64 1016.78 1016.91 1017.03 1017.15 1017.27 1017.37 1017.41 1017.36 1017.23 1017.00 1016.72 1016.41 1016.15 1015.97 1015.92 1016.01 1016.24 1016.57 1016.96 1017.37 1017.75 1018.10 1018.40 1018.68 1018.95 1019.23 1019.55 1019.89 1020.27 1020.66 1021.04 1021.40 1021.74 1022.04 1022.32 1022.59 1022.84 1023.10 1023.35 1023.60
1016.33 1016.54 1016.70 1016.84 1016.95 1017.05 1017.14 1017.22 1017.26 1017.24 1017.15 1016.97 1016.71 1016.39 1016.06 1015.77 1015.56 1015.47 1015.52 1015.69 1015.97 1016.31 1016.69 1017.08 1017.44 1017.77 1018.09 1018.41 1018.74 1019.09 1019.47 1019.87 1020.28 1020.68 1021.07 1021.44 1021.78 1022.10 1022.41 1022.71 1022.99 1023.27 1023.53
1016.41 1016.62 1016.79 1016.93 1017.04 1017.12 1017.18 1017.21 1017.20 1017.12 1016.97 1016.74 1016.43 1016.08 1015.72 1015.40 1015.14 1015.01 1014.99 1015.10 1015.32 1015.62 1015.96 1016.32 1016.69 1017.05 1017.40 1017.75 1018.11 1018.49 1018.89 1019.31 1019.73 1020.15 1020.57 1020.97 1021.36 1021.73 1022.09 1022.44 1022.77 1023.08 1023.37
1016.45 1016.67 1016.85 1017.01 1017.12 1017.20 1017.24 1017.23 1017.17 1017.03 1016.82 1016.53 1016.19 1015.80 1015.40 1015.04 1014.75 1014.56 1014.49 1014.53 1014.68 1014.91 1015.21 1015.54 1015.89 1016.25 1016.61 1016.98 1017.36 1017.76 1018.16 1018.59 1019.02 1019.45 1019.90 1020.34 1020.78 1021.21 1021.64 1022.05 1022.43 1022.79 1023.10
1016.44 1016.66 1016.87 1017.05 1017.18 1017.26 1017.29 1017.25 1017.14 1016.95 1016.68 1016.35 1015.96 1015.54 1015.12 1014.73 1014.40 1014.17 1014.04 1014.02 1014.09 1014.26 1014.49 1014.77 1015.09 1015.43 1015.78 1016.15 1016.53 1016.92 1017.32 1017.74 1018.17 1018.62 1019.09 1019.57 1020.07 1020.57 1021.06 1021.54 1021.99 1022.39 1022.75
1016.37 1016.61 1016.84 1017.04 1017.20 1017.29 1017.30 1017.24 1017.09 1016.85 1016.54 1016.17 1015.75 1015.31 1014.88 1014.47 1014.13 1013.86 1013.68 1013.59 1013.60 1013.69 1013.85 1014.07 1014.34 1014.63 1014.96 1015.30 1015.66 1016.03 1016.42 1016.83 1017.26 1017.72 1018.21 1018.73 1019.28 1019.84 1020.41 1020.95 1021.47 1021.93 1022.33
1016.29 1016.53 1016.78 1017.00 1017.17 1017.27 1017.27 1017.19 1017.00 1016.73 1016.39 1015.99 1015.56 1015.11 1014.68 1014.28 1013.92 1013.64 1013.42 1013.28 1013.22 1013.23 1013.32 1013.46 1013.66 1013.91 1014.19 1014.49 1014.82 1015.17 1015.54 1015.93 1016.36 1016.83 1017.33 1017.88 1018.47 1019.09 1019.71 1020.32 1020.89 1021.40 1021.85
1016.23 1016.46 1016.71 1016.94 1017.11 1017.20 1017.19 1017.08 1016.87 1016.58 1016.21 1015.80 1015.37 1014.94 1014.52 1014.14 1013.79 1013.50 1013.26 1013.08 1012.95 1012.90 1012.90 1012.97 1013.10 1013.29 1013.52 1013.78 1014.08 1014.40 1014.74 1015.12 1015.54 1016.00 1016.51 1017.08 1017.70 1018.34 1019.01 1019.66 1020.28 1020.84 1021.32
1016.21 1016.42 1016.64 1016.85 1017.01 1017.08 1017.05 1016.92 1016.68 1016.37 1016.00 1015.59 1015.18 1014.78 1014.39 1014.04 1013.71 1013.42 1013.17 1012.95 1012.78 1012.67 1012.60 1012.60 1012.67 1012.80 1012.97 1013.20 1013.46 1013.75 1014.08 1014.44 1014.84 1015.29 1015.79 1016.36 1016.98 1017.64 1018.32 1018.99 1019.63 1020.22 1020.74
1016.22 1016.38 1016.57 1016.74 1016.86 1016.90 1016.84 1016.68 1016.44 1016.11 1015.74 1015.35 1014.97 1014.60 1014.26 1013.94 1013.65 1013.37 1013.12 1012.88 1012.68 1012.51 1012.40 1012.34 1012.35 1012.43 1012.57 1012.76 1012.99 1013.26 1013.56 1013.90 1014.27 1014.70 1015.18 1015.72 1016.32 1016.96 1017.63 1018.30 1018.95 1019.56 1020.10
1016.22 1016.33 1016.46 1016.58 1016.66 1016.65 1016.56 1016.38 1016.12 1015.80 1015.44 1015.08 1014.72 1014.40 1014.10 1013.82 1013.56 1013.31 1013.06 1012.83 1012.60 1012.41 1012.26 1012.17 1012.14 1012.18 1012.28 1012.44 1012.65 1012.89 1013.17 1013.47 1013.82 1014.20 1014.64 1015.14 1015.69 1016.30 1016.93 1017.58 1018.22 1018.83 1019.39
1016.17 1016.22 1016.29 1016.35 1016.37 1016.33 1016.21 1016.01 1015.74 1015.42 1015.08 1014.75 1014.43 1014.15 1013.89 1013.65 1013.43 1013.21 1012.98 1012.75 1012.53 1012.32 1012.16 1012.04 1011.99 1012.00 1012.08 1012.22 1012.40 1012.62 1012.86 1013.13 1013.43 1013.77 1014.15 1014.59 1015.08 1015.62 1016.21 1016.82 1017.43 1018.03 1018.60
1016.02 1016.02 1016.03 1016.04 1016.01 1015.93 1015.78 1015.57 1015.30 1015.00 1014.68 1014.38 1014.10 1013.85 1013.63 1013.43 1013.24 1013.05 1012.85 1012.64 1012.43 1012.23 1012.06 1011.94 1011.87 1011.87 1011.93 1012.04 1012.20 1012.38 1012.59 1012.82 1013.06 1013.34 1013.66 1014.03 1014.45 1014.93 1015.45 1016.01 1016.59 1017.17 1017.74
1015.76 1015.71 1015.67 1015.63 1015.56 1015.46 1015.30 1015.08 1014.82 1014.54 1014.25 1013.97 1013.72 1013.50 1013.31 1013.15 1012.99 1012.83 1012.66 1012.48 1012.29 1012.11 1011.96 1011.84 1011.77 1011.76 1011.80 1011.88 1012.00 1012.15 1012.31 1012.49 1012.69 1012.91 1013.16 1013.46 1013.80 1014.21 1014.67 1015.18 1015.72 1016.28 1016.85
1015.38 1015.30 1015.23 1015.16 1015.07 1014.95 1014.79 1014.58 1014.34 1014.07 1013.80 1013.54 1013.32 1013.12 1012.96 1012.82 1012.69 1012.56 1012.43 1012.28 1012.12 1011.97 1011.83 1011.72 1011.65 1011.63 1011.65 1011.70 1011.79 1011.89 1012.01 1012.14 1012.29 1012.45 1012.64 1012.87 1013.16 1013.49 1013.89 1014.35 1014.85 1015.39 1015.95
1014.93 1014.83 1014.74 1014.66 1014.57 1014.45 1014.29 1014.09 1013.86 1013.61 1013.36 1013.11 1012.90 1012.72 1012.57 1012.45 1012.35 1012.25 1012.15 1012.04 1011.92 1011.80 1011.69 1011.59 1011.52 1011.48 1011.47 1011.49 1011.54 1011.61 1011.69 1011.77 1011.88 1012.00 1012.14 1012.32 1012.54 1012.83 1013.17 1013.57 1014.03 1014.54 1015.08
1014.45 1014.35 1014.27 1014.18 1014.09 1013.98 1013.83 1013.65 1013.43 1013.18 1012.93 1012.69 1012.48 1012.30 1012.16 1012.05 1011.97 1011.90 1011.84 1011.77 1011.69 1011.60 1011.51 1011.42 1011.35 1011.29 1011.26 1011.25 1011.27 1011.30 1011.35 1011.41 1011.49 1011.58 1011.69 1011.84 1012.02 1012.25 1012.54 1012.89 1013.30 1013.77 1014.28
1014.00 1013.91 1013.83 1013.76 1013.68 1013.57 1013.43 1013.25 1013.03 1012.78 1012.52 1012.27 1012.05 1011.87 1011.73 1011.64 1011.58 1011.54 1011.51 1011.48 1011.43 1011.37 1011.30 1011.22 1011.14 1011.07 1011.02 1010.99 1010.98 1010.99 1011.03 1011.08 1011.15 1011.24 1011.34 1011.46 1011.62 1011.81 1012.05 1012.35 1012.70 1013.12 1013.58
1013.61 1013.53 1013.46 1013.40 1013.32 1013.21 1013.07 1012.87 1012.64 1012.38 1012.11 1011.85 1011.61 1011.42 1011.28 1011.20 1011.16 1011.15 1011.15 1011.16 1011.14 1011.11 1011.06 1010.98 1010.90 1010.82 1010.75 1010.71 1010.69 1010.70 1010.74 1010.81 1010.89 1010.99 1011.10 1011.23 1011.37 1011.53 1011.72 1011.96 1012.26 1012.60 1013.01
1013.26 1013.19 1013.13 1013.07 1012.99 1012.87 1012.71 1012.50 1012.25 1011.96 1011.67 1011.39 1011.14 1010.94 1010.81 1010.73 1010.71 1010.73 1010.77 1010.80 1010.82 1010.81 1010.77 1010.70 1010.61 1010.53 1010.45 1010.40 1010.39 1010.42 1010.49 1010.59 1010.71 1010.85 1010.99 1011.13 1011.27 1011.41 1011.56 1011.75 1011.98 1012.26 1012.61
1012.94 1012.87 1012.81 1012.73 1012.64 1012.50 1012.32 1012.08 1011.80 1011.50 1011.18 1010.89 1010.63 1010.43 1010.31 1010.25 1010.25 1010.29 1010.36 1010.42 1010.46 1010.46 1010.43 1010.36 1010.28 1010.18 1010.11 1010.07 1010.08 1010.15 1010.26 1010.41 1010.59 1010.78 1010.97 1011.14 1011.29 1011.43 1011.56 1011.70 1011.87 1012.10 1012.38
1012.59 1012.51 1012.43 1012.34 1012.22 1012.06 1011.85 1011.59 1011.29 1010.97 1010.64 1010.34 1010.08 1009.90 1009.78 1009.74 1009.77 1009.83 1009.92 1010.00 1010.05 1010.06 1010.03 1009.97 1009.88 1009.79 1009.73 1009.71 1009.75 1009.86 1010.02 1010.24 1010.49 1010.75 1011.00 1011.22 1011.40 1011.55 1011.68 1011.80 1011.93 1012.11 1012.35
1012.19 1012.08 1011.98 1011.86 1011.72 1011.53 1011.30 1011.03 1010.71 1010.38 1010.06 1009.76 1009.52 1009.35 1009.26 1009.24 1009.28 1009.37 1009.47 1009.55 1009.61 1009.62 1009.59 1009.51 1009.42 1009.34 1009.28 1009.29 1009.36 1009.52 1009.75 1010.04 1010.36 1010.70 1011.02 1011.30 1011.54 1011.72 1011.87 1011.99 1012.12 1012.28 1012.50
1011.69 1011.56 1011.43 1011.29 1011.12 1010.92 1010.68 1010.40 1010.10 1009.78 1009.47 1009.19 1008.98 1008.83 1008.76 1008.75 1008.81 1008.90 1009.01 1009.09 1009.14 1009.14 1009.09 1009.01 1008.91 1008.83 1008.79 1008.81 1008.92 1009.11 1009.40 1009.75 1010.15 1010.56 1010.96 1011.32 1011.63 1011.87 1012.07 1012.24 1012.40 1012.57 1012.79
1011.12 1010.96 1010.80 1010.64 1010.46 1010.26 1010.03 1009.77 1009.49 1009.20 1008.92 1008.68 1008.49 1008.37 1008.31 1008.32 1008.38 1008.46 1008.55 1008.62 1008.65 1008.63 1008.57 1008.47 1008.37 1008.28 1008.24 1008.27 1008.40 1008.63 1008.96 1009.36 1009.82 1010.31 1010.78 1011.22 1011.61 1011.94 1012.22 1012.46 1012.68 1012.90 1013.16
1010.50 1010.31 1010.14 1009.97 1009.80 1009.62 1009.42 1009.20 1008.95 1008.71 1008.47 1008.26 1008.10 1007.99 1007.93 1007.94 1007.98 1008.04 1008.10 1008.14 1008.15 1008.11 1008.02 1007.91 1007.79 1007.70 1007.66 1007.70 1007.83 1008.08 1008.43 1008.86 1009.37 1009.91 1010.45 1010.97 1011.45 1011.88 1012.25 1012.59 1012.89 1013.20 1013.51
Thickness
5730 5729 5726 5725 5726 5726 5726 5725 5726 5726 5726 5726 5726 5727 5728 5729 5728 5728 5728 5726 5725 5724 5724 5725 5725 5725 5724 5724 5723 5722 5722 5721 5720 5720 5720 5720 5719 5718 5717 5716 5716 5715 5715
5725 5724 5722 5722 5722 5721 5721 5721 5722 5722 5722 5722 5723 5724 5724 5725 5724 5724 5725 5725 5723 5723 5722 5723 5724 5724 5724 5723 5723 5722 5721 5721 5720 5719 5719 5719 5718 5718 5717 5716 5715 5715 5714
5721 5718 5718 5718 5717 5716 5716 5716 5717 5717 5718 5719 5720 5720 5721 5721 5722 5722 5723 5723 5723 5722 5722 5722 5722 5723 5723 5723 5723 5723 5721 5720 5720 5719 5719 5718 5718 5717 5717 5716 5715 5714 5714
5714 5713 5714 5714 5711 5711 5711 5711 5711 5712 5713 5714 5716 5717 5718 5719 5719 5720 5721 5722 5722 5724 5724 5723 5722 5722 5722 5722 5723 5723 5722 5721 5720 5719 5719 5718 5717 5717 5716 5716 5715 5714 5714
5708 5707 5707 5706 5704 5706 5706 5706 5707 5705 5706 5707 5710 5712 5714 5716 5717 5719 5720 5721 5722 5723 5724 5724 5722 5721 5721 5722 5722 5723 5722 5721 5720 5719 5719 5719 5718 5717 5716 5715 5715 5714 5714
5701 5701 5701 5699 5698 5699 5699 5698 5696 5696 5697 5700 5703 5706 5709 5712 5714 5716 5717 5720 5721 5722 5723 5723 5722 5721 5721 5721 5722 5721 5721 5721 5720 5719 5719 5719 5718 5717 5716 5715 5715 5714 5714
5695 5693 5694 5692 5690 5692 5691 5691 5691 5691 5692 5694 5694 5698 5704 5709 5712 5712 5713 5716 5718 5719 5719 5720 5720 5721 5723 5721 5721 5721 5721 5721 5720 5719 5719 5718 5718 5718 5717 5716 5715 5714 5713
5688 5689 5685 5686 5686 5684 5683 5683 5682 5683 5686 5688 5686 5687 5691 5699 5703 5709 5708 5710 5712 5714 5715 5717 5717 5718 5719 5722 5723 5721 5720 5721 5721 5719 5719 5719 5719 5719 5717 5716 5716 5715 5714
5682 5680 5679 5679 5678 5678 5680 5677 5675 5675 5676 5680 5682 5679 5679 5684 5690 5698 5700 5702 5703 5705 5708 5711 5713 5715 5717 5719 5721 5720 5720 5720 5720 5719 5719 5718 5718 5719 5718 5717 5716 5716 5715
5677 5675 5673 5672 5671 5672 5672 5670 5674 5671 5668 5671 5675 5675 5675 5676 5673 5680 5689 5695 5697 5698 5700 5704 5709 5712 5714 5716 5717 5718 5719 5719 5718 5719 5719 5718 5718 5719 5718 5718 5717 5716 5715
5673 5670 5668 5666 5665 5665 5665 5662 5661 5661 5663 5663 5666 5668 5669 5669 5670 5669 5674 5680 5687 5693 5696 5699 5702 5706 5710 5712 5714 5716 5717 5717 5717 5717 5718 5718 5718 5718 5719 5718 5718 5717 5716
5671 5669 5664 5661 5660 5659 5658 5655 5655 5655 5654 5655 5655 5659 5661 5661 5664 5666 5667 5670 5675 5684 5689 5692 5696 5700 5703 5707 5710 5713 5714 5714 5715 5715 5716 5716 5717 5718 5719 5719 5718 5718 5717
5668 5665 5661 5656 5655 5653 5650 5649 5648 5647 5647 5646 5646 5649 5653 5655 5657 5658 5659 5664 5667 5674 5680 5685 5690 5693 5697 5701 5704 5706 5709 5710 5712 5713 5713 5715 5717 5718 5719 5719 5719 5719 5718
5663 5658 5654 5651 5648 5646 5645 5643 5642 5642 5640 5639 5639 5640 5641 5645 5649 5650 5651 5654 5657 5664 5671 5676 5681 5685 5688 5692 5696 5699 5704 5706 5708 5710 5712 5713 5715 5717 5718 5718 5719 5719 5719
5657 5654 5649 5646 5643 5641 5638 5636 5636 5634 5633 5632 5633 5633 5633 5638 5639 5642 5644 5646 5646 5650 5659 5667 5670 5675 5679 5683 5688 5694 5698 5701 5704 5706 5709 5711 5713 5716 5717 5718 5719 5719 5719
5650 5647 5644 5641 5639 5636 5633 5630 5629 5629 5626 5624 5623 5623 5623 5627 5631 5633 5635 5639 5641 5643 5649 5658 5662 5667 5670 5676 5681 5687 5693 5696 5699 5703 5706 5709 5712 5714 5715 5717 5718 5718 5718
5645 5642 5639 5636 5633 5631 5628 5625 5623 5621 5619 5618 5617 5617 5617 5617 5620 5624 5627 5630 5634 5637 5640 5649 5656 5660 5662 5666 5673 5679 5685 5690 5695 5698 5702 5706 5709 5711 5713 5715 5716 5717 5717
5641 5638 5634 5631 5628 5625 5622 5619 5616 5615 5613 5611 5610 5610 5609 5611 5611 5612 5616 5620 5625 5629 5632 5637 5645 5650 5654 5659 5664 5670 5677 5684 5689 5693 5697 5701 5704 5707 5710 5712 5713 5715 5715
5637 5633 5629 5626 5622 5619 5616 5613 5610 5607 5606 5604 5603 5602 5602 5602 5602 5605 5607 5611 5616 5622 5625 5630 5636 5642 5647 5652 5656 5661 5668 5674 5680 5685 5689 5693 5698 5702 5706 5708 5710 5711 5713
5632 5628 5624 5620 5616 5613 5609 5606 5603 5600 5598 5597 5595 5594 5594 5594 5594 5595 5598 5601 5605 5610 5615 5620 5628 5634 5639 5645 5648 5653 5658 5665 5671 5676 5680 5685 5689 5694 5698 5702 5705 5707 5709
5628 5623 5619 5614 5610 5607 5605 5601 5595 5593 5590 5588 5587 5586 5586 5586 5585 5585 5589 5594 5597 5600 5607 5612 5619 5626 5632 5637 5641 5647 5651 5655 5661 5667 5672 5677 5682 5686 5689 5693 5697 5701 5704
5623 5617 5613 5608 5604 5602 5597 5588 5582 5581 5581 5579 5579 5578 5578 5577 5577 5575 5575 5577 5580 5587 5596 5602 5610 5617 5623 5630 5635 5639 5643 5647 5651 5658 5662 5666 5673 5677 5682 5687 5690 5694 5698
5617 5612 5607 5602 5598 5594 5586 5579 5572 5569 5571 5571 5571 5570 5570 5574 5571 5571 5570 5569 5571 5574 5578 5586 5597 5606 5614 5621 5626 5631 5635 5640 5644 5650 5653 5655 5661 5665 5671 5675 5680 5685 5689
5611 5606 5601 5596 5591 5587 5579 5572 5565 5563 5564 5565 5563 5562 5561 5561 5561 5561 5562 5566 5569 5573 5575 5577 5586 5596 5602 5610 5616 5621 5626 5631 5636 5640 5645 5647 5650 5654 5658 5664 5669 5675 5680
5606 5601 5596 5591 5585 5580 5573 5565 5556 5559 5561 5560 5558 5556 5553 5552 5550 5547 5548 5553 5558 5564 5568 5573 5578 5584 5589 5597 5604 5611 5617 5622 5626 5631 5636 5639 5641 5642 5646 5652 5657 5663 5669
5601 5595 5591 5585 5580 5575 5568 5559 5550 5553 5555 5554 5552 5549 5545 5541 5539 5536 5538 5542 5547 5554 5559 5567 5570 5574 5581 5588 5593 5602 5610 5615 5620 5624 5628 5632 5634 5635 5636 5640 5647 5653 5658